EAGLET 1 (43790 NORAD) Tracking and Keplerian Element Data

This shows tracking and keplerian element data for the satellite.

Feedback or suggestion? Click here.




ElementValue
Catalog43790
NameEAGLET 1
Epoch Orbit33709
Epoch Day34.69441251
Epoch Year2025
RAAN92.2217
Inclination97.4969
Eccentricity0.0011266
Argument of Perigee260.1609
Mean Anonmoly99.8347
Mean Motion15.07177233
Decay Rate7.948E-05
L11 43790U 18099AJ 25034.69441251 .00007948 00000-0 53142-3 0 9992
L22 43790 97.4969 92.2217 0011266 260.1609 99.8347 15.07177233337090



Live tracking and technical data element details for EAGLET 1 (NORAD 43790). EAGLET 1 can be tracked NOW for your location showing map with azimuth and elevation plus other details from your city location.







IsCatalogInMostPopularTable: catalog: 43790, numindb: 396
Update: records affected: 1



GetName: 43790 EAGLET 1

Hit Count: updated at: Sat, 17 May 2025 08:34:46 GMT